Home   Weather   Elizabeth   Past weeks

Flag for USA Past Weather in Elizabeth, New Jersey, USA — Yesterday and Last 2 Weeks

Now
40 °F

Passing clouds.


Feels Like: 31 °F
Forecast: 37 / 43 °F
Wind: 18 mph from West

Location: Newark International Airport

Current Time: Feb 26, 2017 at 6:45:45 pm

Latest Report: Feb 26, 2017 at 5:51 pm


Visibility: 10 mi

Pressure: 30.13 "Hg

Humidity: 38%

Dew Point: 16 °F

Location of ElizabethLocation

Past Weather in Elizabeth — Graph

°F

Elizabeth Temperature Yesterday

Maximum temperature yesterday: 66 °F (at 2:51 pm)
Minimum temperature yesterday: 46 °F (at 11:51 pm)
Average temperature yesterday: 55 °F

High & Low Weather Summary for the Past Weeks

 TemperatureHumidityPressure
High73 °F (Feb 24, 12:51 pm)100% (Feb 23, 8:35 am)30.40 "Hg (Feb 23, 8:35 am)
Low27 °F (Feb 17, 2:51 am)15% (Feb 20, 4:51 pm)29.31 "Hg (Feb 15, 3:51 pm)
Average44 °F62%29.86 "Hg
* Reported Feb 11 4:51 pm — Feb 26 4:51 pm, Elizabeth, Weather by CustomWeather, © 2017

Note: Actual official high and low records may vary slightly from our data, if they occured in-between our weather recording intervals... More about our weather records

Advertising

Elizabeth Weather History for the Previous 24 Hours

Scroll right to see more
 ConditionsComfort  
Time TempWeatherWind HumidityBarometerVisibility
4:51 pm
Sun, Feb 26
41 °FScattered clouds.20 mph36%30.09 "Hg10 mi
3:51 pm43 °FPassing clouds.18 mph31%30.06 "Hg10 mi
2:51 pm44 °FScattered clouds.15 mph31%30.04 "Hg10 mi
1:51 pm44 °FScattered clouds.10 mph32%30.03 "Hg10 mi
12:51 pm43 °FScattered clouds.20 mph32%30.02 "Hg10 mi
11:51 am42 °FScattered clouds.23 mph32%30.03 "Hg10 mi
10:51 am41 °FPartly sunny.21 mph36%30.01 "Hg10 mi
9:51 am39 °FPartly sunny.18 mph39%29.99 "Hg10 mi
8:51 am39 °FPartly sunny.22 mph43%29.97 "Hg10 mi
7:51 am38 °FPartly sunny.13 mph46%29.94 "Hg10 mi
6:51 am37 °FPartly sunny.17 mph46%29.90 "Hg10 mi
5:51 am37 °FPassing clouds.17 mph46%29.87 "Hg10 mi
4:51 am39 °FPassing clouds.15 mph53%29.82 "Hg10 mi
3:51 am41 °FOvercast.18 mph53%29.79 "Hg10 mi
2:51 am42 °FMostly cloudy.15 mph65%29.76 "Hg10 mi
1:51 am43 °FOvercast.17 mph62%29.73 "Hg10 mi
12:51 am44 °FPartly cloudy.21 mph63%29.71 "Hg10 mi
11:51 pm
Sat, Feb 25
46 °FPartly cloudy.18 mph66%29.67 "Hg10 mi
10:51 pm49 °FLight rain. Passing clouds.21 mph69%29.63 "Hg10 mi
9:51 pm50 °FPartly cloudy.13 mph71%29.59 "Hg10 mi
8:51 pm50 °FLight rain. Mostly cloudy.12 mph77%29.60 "Hg10 mi
7:51 pm52 °FRain. Overcast.18 mph86%29.59 "Hg7 mi
6:51 pm56 °FThunderstorms. Fog.15 mph87%29.55 "Hg5 mi
6:33 pm57 °FStrong thunderstorms. Fog.16 mph90%29.55 "Hg3 mi
6:03 pm63 °FThunderstorms. Overcast.9 mph77%29.48 "Hg10 mi
Weather by CustomWeather, © 2017

See weather overviewHow to use our weather pages